This is the latest recevied weather packets stored in our database for station/object WW4HG. If no packets are shown the sender has not sent any weather packets the latest 10 day(s).
| Time | Temp. | Humidity | Pressure | Rain* | Wind** | Luminosity | Snow |
|---|---|---|---|---|---|---|---|
| 1777895134 | 11.67° C | 85% | 1019.7 hPa | 0 mm | - | 166 W/m² | - |
| 1777894832 | 11.11° C | 85% | 1019.7 hPa | 0 mm | - | 157 W/m² | - |
| 1777894528 | 10.56° C | 85% | 1019.7 hPa | 0 mm | - | 147 W/m² | - |
| 1777894226 | 10° C | 85% | 1019.7 hPa | 0 mm | - | 138 W/m² | - |
| 1777893922 | 8.89° C | 85% | 1019.7 hPa | 0 mm | - | 127 W/m² | - |
| 1777893618 | 8.89° C | 85% | 1019.4 hPa | 0 mm | - | 113 W/m² | - |
| 1777893314 | 8.33° C | 86% | 1019.7 hPa | 0 mm | - | 101 W/m² | - |
| 1777893005 | 8.33° C | 86% | 1019.7 hPa | 0 mm | - | 57 W/m² | - |
| 1777892703 | 8.33° C | 86% | 1019.4 hPa | 0 mm | - | 18 W/m² | - |
| 1777892398 | 8.33° C | 86% | 1019.7 hPa | 0 mm | - | 15 W/m² | - |
| 1777892094 | 7.78° C | 86% | 1019.7 hPa | 0 mm | - | 13 W/m² | - |
| 1777891792 | 7.78° C | 87% | 1019.7 hPa | 0 mm | - | 12 W/m² | - |
| 1777891488 | 7.78° C | 87% | 1019.4 hPa | 0 mm | - | 9 W/m² | - |
| 1777891184 | 7.78° C | 87% | 1019.4 hPa | 0 mm | - | 7 W/m² | - |
| 1777890878 | 8.33° C | 87% | 1019.4 hPa | 0 mm | - | 5 W/m² | - |
| 1777890575 | 8.33° C | 87% | 1019.4 hPa | 0 mm | - | 3 W/m² | - |
| 1777890270 | 8.33° C | 87% | 1019.4 hPa | 0 mm | - | 2 W/m² | - |
| 1777889967 | 8.33° C | 86% | 1019 hPa | 0 mm | - | 1 W/m² | - |
| 1777889665 | 8.33° C | 86% | 1019 hPa | 0 mm | - | 1 W/m² | - |
| 1777889361 | 8.33° C | 86% | 1019 hPa | 0 mm | - | 1 W/m² | - |
| 1777889059 | 8.33° C | 86% | 1019.4 hPa | 0 mm | - | 1 W/m² | - |
| 1777888756 | 8.33° C | 86% | 1019.4 hPa | 0 mm | - | 1 W/m² | - |
| 1777888452 | 8.33° C | 86% | 1019 hPa | 0 mm | - | 1 W/m² | - |
| 1777888148 | 8.33° C | 86% | 1019 hPa | 0 mm | - | 1 W/m² | - |
| 1777887846 | 8.33° C | 86% | 1019 hPa | 0 mm | - | 1 W/m² | - |
* Rain latest hour (hover to see other rain measurements)
** Current wind speed in m/s (hover to see current wind gust speed)